Content
SEND FEEDBACK

Daily
Averages
Monthly
Summary
United States of America

UPI, GUAM


Home > North America > United States > Guam
Elevation: 53 feet     Latitude: 13 34N     Longitude: 144 55E

WEATHER
 
SELECT A DAY
Number of Records: 213,786;   Date Range: 1/1/95 - 10/20/14
 
SHARE

PRINT THIS DATA

[ ← Previous Day ]
WEATHER ALMANAC - MARCH 8, 2013
[ Next Day → ]
[ °C ]   °F
Weather ElementAverageHighLow
Temperature83.6 °F89.1 °F (1:54 pm)80.6 °F (3:50 am)
Dewpoint71.7 °F73.4 °F (8:02 am)70 °F (11:54 am)
Humidity67.6 %74 % (3:50 am)55 % (1:54 pm)
Barometer29.91 in29.98 in (8:02 am)29.83 in (3:54 pm)
Wind Speed12.4 mph19.6 mph (3:54 pm)
Wind Gust25.3 mph (11:54 am)
Weather ElementAverage
Visibility9.9 mi
Wind DirectionE (86.1 °)

Weather ElementTotal
Precipitation0.03 in
Cooling Degree Days19.9 (Base 65)
Growing Degree Days34.9 (Base 50)
Averaged from 28 records on March 8, 2013
WEATHER CONDITIONS BREAKOUT
WIND DIRECTION BREAKOUT
WEATHER BY HOUR - MARCH 8, 2013
[ °C ]   °F
Local TimeTemperatureDewpointHumidityBarometerVisibilityWind DirectionWind SpeedGust SpeedPrecipitationEventsConditions
1:54 AM82.0 °F72.0 °F71 %29.91 in10.0 miENE (70°)13.8 mphPartly Cloudy
2:54 AM81.0 °F71.1 °F72 %29.90 in10.0 miEast (80°)12.7 mphPartly Cloudy
3:50 AM80.6 °F71.6 °F74 %29.92 in10.0 miEast (80°)9.2 mphMostly Cloudy
3:54 AM81.0 °F72.0 °F74 %29.90 in10.0 miEast (80°)10.4 mphMostly Cloudy
4:05 AM82.4 °F71.6 °F70 %29.92 in10.0 miEast (80°)12.7 mphMostly Cloudy
4:15 AM82.4 °F71.6 °F70 %29.92 in10.0 miEast (80°)11.5 mphMostly Cloudy
4:54 AM81.0 °F71.1 °F72 %29.90 in10.0 miEast (80°)9.2 mphMostly Cloudy
5:54 AM81.0 °F72.0 °F74 %29.91 in10.0 miEast (80°)9.2 mphScattered Clouds
6:54 AM82.0 °F72.0 °F71 %29.94 in10.0 miEast (90°)16.1 mph19.6 mphScattered Clouds
7:54 AM82.0 °F73.0 °F74 %29.96 in8.0 miEast (100°)12.7 mph19.6 mph0.00 inRainLight Rain
8:02 AM82.4 °F73.4 °F74 %29.98 in8.0 miEast (90°)11.5 mph0.01 inRainLight Rain
8:10 AM82.4 °F73.4 °F74 %29.98 in10.0 miEast (90°)11.5 mph0.01 inMostly Cloudy
8:54 AM84.0 °F73.0 °F69 %29.97 in10.0 miEast (100°)16.1 mph21.9 mph0.01 inScattered Clouds
9:54 AM86.0 °F72.0 °F63 %29.97 in10.0 miEast (90°)15.0 mph21.9 mphScattered Clouds
10:54 AM88.0 °F71.1 °F57 %29.95 in10.0 miEast (90°)15.0 mph24.2 mphClear
11:54 AM87.1 °F70.0 °F57 %29.92 in10.0 miEast (100°)18.4 mph25.3 mphClear
12:54 PM88.0 °F71.1 °F57 %29.89 in10.0 miEast (100°)16.1 mph24.2 mphClear
1:54 PM89.1 °F71.1 °F55 %29.87 in10.0 miEast (90°)17.3 mph23.0 mphPartly Cloudy
2:54 PM87.1 °F71.1 °F59 %29.86 in10.0 miEast (100°)16.1 mph25.3 mphClear
3:54 PM87.1 °F71.1 °F59 %29.83 in10.0 miENE (70°)19.6 mph25.3 mphPartly Cloudy
4:54 PM86.0 °F71.1 °F61 %29.84 in10.0 miEast (90°)16.1 mph23.0 mphPartly Cloudy
5:54 PM84.9 °F71.1 °F63 %29.86 in10.0 miEast (80°)13.8 mph19.6 mphPartly Cloudy
6:54 PM82.0 °F72.0 °F71 %29.87 in10.0 miEast (80°)6.9 mphScattered Clouds
7:54 PM82.0 °F72.0 °F71 %29.90 in10.0 miEast (90°)5.8 mphScattered Clouds
8:54 PM82.0 °F72.0 °F71 %29.91 in10.0 miEast (90°)9.2 mphPartly Cloudy
9:54 PM82.0 °F72.0 °F71 %29.93 in10.0 miEast (80°)6.9 mphScattered Clouds
10:54 PM82.0 °F72.0 °F71 %29.94 in10.0 miEast (80°)8.1 mphPartly Cloudy
11:54 PM82.0 °F71.1 °F69 %29.94 in10.0 miEast (80°)6.9 mphClear
Hourly data recorded from PGUM, located miles away from Upi, Guam







STORIES FROM OUR PARTNERS